[[{"header":{"parameterUnit":"m.s-1","parameterCategory":1,"la1":30.2991,"la2":30.254,"lo1":-89.0895,"lo2":-89.0444,"dy":0.0017,"dx":0.0017,"nx":28,"ny":28,"refTime":"2024-04-04T03:00:00:Z","depth":0,"parameterNumber":2,"parameterNumberName":"U-component_of_WINDS"},"data":[0,0,0,0,0,0,0,0,0,0,0,0,0,0,0,0,0,0,0,0,0,0,0,0,0,0,0,0,0,0,0,0,0,0,0,0,0,0,0,0,0,0,0,0,0,0,0,0,0,0,0,0,0,0,0,0,0,0,3.0984,3.0985,0,3.1073,3.1074,3.1075,3.1109,3.1108,3.1108,3.1108,3.1199,3.1201,3.1204,0,0,0,0,0,0,0,0,0,0,0,0,0,3.0841,3.0844,3.0984,3.0985,3.0986,3.1073,3.1074,3.1076,3.1109,3.1108,3.1108,3.1108,3.1198,3.1201,3.1204,0,0,0,0,0,0,0,0,0,0,0,0,0,3.0914,3.0844,3.0983,3.1013,3.1017,3.1073,3.1074,3.1076,3.1109,3.1108,3.1108,3.1108,3.1197,3.1201,3.1205,3.1238,0,0,3.1217,3.1219,0,0,0,0,0,0,0,0,3.091,3.0919,3.1008,3.1011,3.1015,3.1079,3.1058,3.113,3.1109,3.1074,3.1108,3.1107,3.1159,3.1166,3.1184,3.1242,3.1246,3.1217,3.122,3.1221,3.1223,0,0,0,0,0,0,0,3.0905,3.0916,3.1019,3.1009,3.1013,3.1022,3.1032,3.1071,3.1118,3.1077,3.1079,3.109,3.1161,3.118,3.1186,3.1247,3.1217,3.1221,3.1223,3.1225,3.1339,3.134,0,0,0,0,0,0,3.0895,3.0911,3.1016,3.1022,3.096,3.1025,3.1036,3.1059,3.1117,3.1126,3.109,3.1091,3.1173,3.1182,3.119,3.1234,3.1221,3.1225,3.1228,3.1338,3.1339,3.134,0,0,0,0,0,0,3.0892,3.0904,3.1013,3.0967,3.0982,3.1028,3.1054,3.1061,3.108,3.1127,3.1136,3.1101,3.1173,3.1184,3.1226,3.1237,3.1227,3.1231,3.1338,3.1339,3.134,3.1321,0,0,0,0,0,0,3.0888,3.0903,3.0916,3.0967,3.0984,3.1047,3.1054,3.1063,3.1087,3.1089,3.114,3.1148,3.1174,3.122,3.123,3.1242,3.1234,3.1337,3.1338,3.1339,3.132,3.1321,3.1321,0,0,0,0,0,3.0882,3.0906,3.0916,3.0929,3.1001,3.1048,3.1057,3.1087,3.1088,3.1101,3.1132,3.1146,3.1234,3.1224,3.1236,3.1249,3.1336,3.1338,3.1339,3.132,3.1321,3.1321,0,0,0,0,0,0,3.0854,3.0913,3.0925,3.0966,3.1002,3.1053,3.1071,3.1087,3.1123,3.1123,3.1159,3.117,3.1209,3.1234,3.1221,3.1286,3.1286,3.129,3.1268,3.1269,3.1269,3.1262,3.1237,0,0,0,0,0,3.0852,3.0885,3.0936,3.0967,3.0985,3.1025,3.1046,3.1067,3.1105,3.112,3.1153,3.119,3.1226,3.1249,3.1284,3.1324,3.1336,3.134,3.134,3.134,3.1343,3.1367,3.1369,3.1344,3.1344,3.1344,0,0,3.0849,3.0886,3.0905,3.0962,3.0992,3.1026,3.1037,3.1072,3.1097,3.1125,3.1167,3.1193,3.1236,3.1277,3.1297,3.1299,3.1352,3.1342,3.1341,3.1344,3.1369,3.1371,3.1373,3.1345,3.1345,3.1345,0,0,3.0861,3.0892,3.0923,3.0953,3.0998,3.1025,3.1032,3.1082,3.1101,3.1144,3.1166,3.1196,3.1258,3.1288,3.1311,3.1336,3.1351,3.1347,3.1348,3.1371,3.1373,3.1375,3.1385,3.1388,3.135,3.135,3.135,0,3.0852,3.0903,3.0936,3.097,3.0995,3.1023,3.1054,3.1082,3.1136,3.1153,3.1154,3.1233,3.1263,3.1313,3.1319,3.1337,3.1347,3.1341,3.1371,3.1373,3.1375,3.1385,3.1388,3.1349,3.1349,3.1349,3.1349,0,3.089,3.0925,3.0944,3.0998,3.1025,3.1057,3.1095,3.1119,3.1137,3.1164,3.1208,3.1246,3.1291,3.1304,3.1322,3.1357,3.1356,3.1364,3.1365,3.1376,3.1386,3.139,3.1348,3.1348,3.1348,3.1349,0,0,3.0885,3.0957,3.0963,3.0988,3.1042,3.107,3.1104,3.1148,3.1168,3.1205,3.1235,3.1287,3.1295,3.1321,3.1343,3.1363,3.1382,3.1368,3.137,3.137,3.1423,3.1417,3.1421,3.1392,3.1393,3.1394,3.142,0,3.0904,3.0967,3.0998,3.1047,3.1081,3.1108,3.1138,3.1174,3.12,3.1233,3.1262,3.1299,3.1306,3.1322,3.1343,3.1375,3.1393,3.1373,3.142,3.1421,3.1408,3.1426,3.142,3.1442,3.1424,3.1424,3.1425,0,3.0935,3.0973,3.1025,3.1076,3.1091,3.1117,3.1161,3.1192,3.1234,3.1252,3.1282,3.1304,3.1341,3.134,3.1393,3.1379,3.14,3.1419,3.142,3.1425,3.1423,3.1432,3.145,3.1454,3.1431,3.143,3.143,0,3.0926,3.0991,3.1031,3.1051,3.1111,3.1129,3.1155,3.1196,3.1221,3.126,3.1276,3.1318,3.1341,3.1373,3.1406,3.1402,3.1456,3.1457,3.1472,3.1471,3.1481,3.148,3.1503,3.1495,3.1495,3.1495,3.1495,0,3.0945,3.0976,3.1028,3.1053,3.1089,3.1125,3.1159,3.1187,3.1224,3.1255,3.1281,3.1309,3.1351,3.1384,3.141,3.145,3.146,3.1476,3.1482,3.1474,3.1472,3.1488,3.1487,3.1496,3.1495,3.1495,3.1495,0,3.0941,3.0977,3.1023,3.1077,3.1091,3.1115,3.1161,3.1186,3.1215,3.1253,3.1264,3.1309,3.135,3.1386,3.144,3.1457,3.1498,3.1506,3.1484,3.1488,3.15,3.1499,3.1535,3.1541,3.1528,3.1528,3.1528,0,3.095,3.0975,3.1032,3.1054,3.108,3.1116,3.1142,3.1179,3.1205,3.1256,3.1275,3.1318,3.1354,3.1419,3.1456,3.1498,3.1507,3.1517,3.1513,3.1504,3.1508,3.1506,3.1509,3.1517,3.1517,3.1517,3.1517,0,3.0963,3.098,3.1017,3.106,3.1091,3.1127,3.1163,3.1181,3.1224,3.1252,3.1295,3.1323,3.138,3.1422,3.1469,3.1495,3.1513,3.1518,3.1523,3.1514,3.1501,3.1509,3.1484,3.1516,3.1516,3.1516,3.1516,3.1516,3.0966,3.099,3.1034,3.1074,3.1106,3.114,3.1167,3.1199,3.1235,3.1284,3.1304,3.1348,3.139,3.1454,3.1481,3.1516,3.1519,3.1527,3.1529,3.153,3.1529,3.1495,3.1525,3.1525,3.1525,3.1525,3.1525,0,3.098,3.101,3.1047,3.1098,3.113,3.1145,3.1187,3.1213,3.1251,3.129,3.1325,3.1375,3.1417,3.1458,3.1503,3.1523,3.1532,3.1533,3.1532,3.1538,3.1524,3.1515,3.1525,3.1525,3.1525,3.1525,3.1525,3.1525,3.0991,3.1033,3.1055,3.1113,3.1143,3.1186,3.1209,3.1241,3.1272,3.1326,3.1362,3.1388,3.1428,3.1476,3.1515,3.1527,3.1542,3.154,3.1553,3.1539,3.1539,3.1538,3.153,3.1543,3.1543,3.1565,3.1565,3.1565]},{"header":{"parameterUnit":"m.s-1","parameterCategory":1,"la1":30.2991,"la2":30.254,"lo1":-89.0895,"lo2":-89.0444,"dy":0.0017,"dx":0.0017,"nx":28,"ny":28,"refTime":"2024-04-04T03:00:00:Z","depth":0,"parameterNumber":3,"parameterNumberName":"V-component_of_WINDS"},"data":[0,0,0,0,0,0,0,0,0,0,0,0,0,0,0,0,0,0,0,0,0,0,0,0,0,0,0,0,0,0,0,0,0,0,0,0,0,0,0,0,0,0,0,0,0,0,0,0,0,0,0,0,0,0,0,0,0,0,-2.5392,-2.5393,0,-2.5471,-2.5472,-2.5473,-2.5488,-2.5487,-2.5486,-2.5486,-2.5566,-2.5569,-2.5571,0,0,0,0,0,0,0,0,0,0,0,0,0,-2.5254,-2.5256,-2.5392,-2.5393,-2.5394,-2.5471,-2.5472,-2.5473,-2.5488,-2.5487,-2.5486,-2.5486,-2.5565,-2.5568,-2.5572,0,0,0,0,0,0,0,0,0,0,0,0,0,-2.5321,-2.5257,-2.5392,-2.541,-2.5413,-2.5471,-2.5472,-2.5474,-2.5488,-2.5487,-2.5486,-2.5485,-2.5564,-2.5568,-2.5572,-2.5617,0,0,-2.5585,-2.5586,0,0,0,0,0,0,0,0,-2.5317,-2.5326,-2.5407,-2.5409,-2.5412,-2.5469,-2.5453,-2.5521,-2.5488,-2.5459,-2.5486,-2.5485,-2.5534,-2.5541,-2.5558,-2.562,-2.5624,-2.5585,-2.5587,-2.5589,-2.559,0,0,0,0,0,0,0,-2.5313,-2.5323,-2.5423,-2.5408,-2.5411,-2.5415,-2.5424,-2.5466,-2.5501,-2.5462,-2.5463,-2.5472,-2.5536,-2.5554,-2.556,-2.5625,-2.5585,-2.5588,-2.5591,-2.5593,-2.5731,-2.5732,0,0,0,0,0,0,-2.5305,-2.5319,-2.5421,-2.5426,-2.5361,-2.5418,-2.5428,-2.5451,-2.5501,-2.5507,-2.5473,-2.5473,-2.5547,-2.5555,-2.5563,-2.562,-2.5589,-2.5593,-2.5595,-2.573,-2.5731,-2.5733,0,0,0,0,0,0,-2.5302,-2.5314,-2.5417,-2.5373,-2.5386,-2.5422,-2.5448,-2.5453,-2.5472,-2.5509,-2.5516,-2.5485,-2.5547,-2.5557,-2.5604,-2.5623,-2.5595,-2.5599,-2.5728,-2.573,-2.5732,-2.5734,0,0,0,0,0,0,-2.5298,-2.5312,-2.5329,-2.5373,-2.5389,-2.5457,-2.5449,-2.5456,-2.5479,-2.5479,-2.5522,-2.5529,-2.5547,-2.5598,-2.5608,-2.5628,-2.5602,-2.5727,-2.5729,-2.5731,-2.5733,-2.5736,-2.5739,0,0,0,0,0,-2.5293,-2.5326,-2.533,-2.5342,-2.5411,-2.5458,-2.5467,-2.5488,-2.548,-2.5498,-2.5523,-2.5527,-2.5619,-2.5602,-2.5614,-2.5636,-2.5726,-2.5729,-2.5731,-2.5731,-2.5735,-2.5739,0,0,0,0,0,0,-2.5283,-2.5332,-2.5337,-2.5385,-2.5418,-2.5461,-2.5483,-2.5491,-2.5525,-2.5524,-2.5548,-2.5558,-2.5604,-2.5624,-2.5605,-2.5683,-2.5672,-2.5677,-2.5668,-2.5672,-2.5675,-2.567,-2.5605,0,0,0,0,0,-2.5286,-2.5321,-2.5362,-2.5401,-2.5417,-2.5447,-2.5469,-2.5482,-2.5516,-2.553,-2.5558,-2.559,-2.5627,-2.565,-2.5686,-2.5735,-2.5746,-2.5756,-2.5759,-2.5762,-2.5766,-2.5797,-2.5802,-2.5742,-2.5742,-2.5742,0,0,-2.5294,-2.5325,-2.5345,-2.54,-2.5426,-2.5462,-2.5459,-2.5496,-2.5523,-2.5535,-2.5582,-2.5604,-2.5642,-2.5691,-2.5714,-2.571,-2.5785,-2.5765,-2.5767,-2.577,-2.58,-2.5806,-2.5811,-2.5744,-2.5743,-2.5743,0,0,-2.5326,-2.5352,-2.5389,-2.5416,-2.5457,-2.5477,-2.5486,-2.5528,-2.5544,-2.5591,-2.5602,-2.5634,-2.5696,-2.5724,-2.5746,-2.5792,-2.5798,-2.5802,-2.5819,-2.5848,-2.5853,-2.5857,-2.5875,-2.5881,-2.5806,-2.5806,-2.5807,0,-2.533,-2.5385,-2.5406,-2.5445,-2.5469,-2.5483,-2.552,-2.5545,-2.5595,-2.5612,-2.5607,-2.5687,-2.5713,-2.577,-2.5781,-2.5798,-2.581,-2.5798,-2.585,-2.5855,-2.5859,-2.5877,-2.5883,-2.5807,-2.5807,-2.5807,-2.5807,0,-2.5389,-2.5427,-2.5451,-2.5501,-2.5528,-2.5565,-2.5593,-2.5618,-2.563,-2.5651,-2.5701,-2.5733,-2.5777,-2.5791,-2.5802,-2.585,-2.5847,-2.5845,-2.5835,-2.5865,-2.5882,-2.5889,-2.5808,-2.5807,-2.5807,-2.5807,0,0,-2.5416,-2.5479,-2.5488,-2.5511,-2.5558,-2.5588,-2.5627,-2.567,-2.5692,-2.5727,-2.5761,-2.5814,-2.5814,-2.5839,-2.5853,-2.5879,-2.5916,-2.5875,-2.5876,-2.5883,-2.5974,-2.5976,-2.5983,-2.592,-2.5921,-2.5922,-2.5971,0,-2.5455,-2.5526,-2.5548,-2.5607,-2.5643,-2.5658,-2.5692,-2.5725,-2.5746,-2.5781,-2.5804,-2.5842,-2.5838,-2.5854,-2.588,-2.5906,-2.5934,-2.5902,-2.5953,-2.5955,-2.5944,-2.5992,-2.5993,-2.6038,-2.5978,-2.5979,-2.598,0,-2.551,-2.5548,-2.5611,-2.5655,-2.5671,-2.5702,-2.5745,-2.5777,-2.5815,-2.5829,-2.5859,-2.5871,-2.5914,-2.5901,-2.596,-2.5938,-2.596,-2.5976,-2.5978,-2.5985,-2.597,-2.6001,-2.6053,-2.606,-2.599,-2.5989,-2.5989,0,-2.5527,-2.5592,-2.5639,-2.5659,-2.5711,-2.5733,-2.5756,-2.5793,-2.5819,-2.5856,-2.5873,-2.5915,-2.5938,-2.597,-2.5994,-2.5982,-2.6053,-2.6041,-2.6067,-2.6066,-2.6081,-2.608,-2.6139,-2.6093,-2.6093,-2.6093,-2.6093,0,-2.5569,-2.5608,-2.5648,-2.5677,-2.5721,-2.5746,-2.5789,-2.5813,-2.5846,-2.5881,-2.5895,-2.5927,-2.5956,-2.5993,-2.6012,-2.606,-2.6069,-2.6083,-2.6087,-2.6082,-2.6081,-2.6098,-2.6096,-2.6095,-2.6094,-2.6094,-2.6093,0,-2.5595,-2.5623,-2.5676,-2.5722,-2.5735,-2.5765,-2.5805,-2.5835,-2.5857,-2.5901,-2.5912,-2.5948,-2.5992,-2.6019,-2.6074,-2.6087,-2.614,-2.6143,-2.6128,-2.613,-2.6155,-2.6153,-2.6228,-2.624,-2.6184,-2.6185,-2.6185,0,-2.5621,-2.5651,-2.5702,-2.5726,-2.575,-2.5789,-2.5816,-2.5842,-2.5869,-2.5916,-2.594,-2.5985,-2.6023,-2.6092,-2.6123,-2.6166,-2.6171,-2.6194,-2.6177,-2.6172,-2.6174,-2.6172,-2.6177,-2.6197,-2.6198,-2.6198,-2.6198,0,-2.5665,-2.5678,-2.5716,-2.576,-2.5792,-2.5827,-2.5863,-2.5882,-2.5915,-2.5945,-2.599,-2.602,-2.6077,-2.6122,-2.6168,-2.6192,-2.6202,-2.6204,-2.6212,-2.6208,-2.6199,-2.6206,-2.6137,-2.6202,-2.6201,-2.6201,-2.6201,-2.6201,-2.5693,-2.5722,-2.5762,-2.5805,-2.5835,-2.5868,-2.5899,-2.5926,-2.5965,-2.6014,-2.6027,-2.6075,-2.6115,-2.6178,-2.6203,-2.6242,-2.6239,-2.625,-2.6254,-2.6257,-2.6258,-2.6191,-2.625,-2.625,-2.625,-2.625,-2.625,0,-2.5739,-2.5767,-2.5806,-2.5856,-2.589,-2.5896,-2.5937,-2.5965,-2.6007,-2.6044,-2.6081,-2.6134,-2.6179,-2.6214,-2.626,-2.6284,-2.629,-2.6295,-2.6295,-2.63,-2.6257,-2.6246,-2.629,-2.629,-2.629,-2.629,-2.629,-2.629,-2.5768,-2.5817,-2.5835,-2.5901,-2.5928,-2.5976,-2.5999,-2.603,-2.606,-2.6119,-2.6156,-2.6179,-2.6216,-2.6265,-2.6306,-2.6315,-2.6332,-2.6338,-2.6348,-2.6307,-2.6303,-2.6299,-2.6289,-2.6341,-2.6341,-2.6388,-2.6389,-2.6389]}]]